{"data":{"norad_id":53478,"intl_designator":"2022-099P","name":"STARLINK-4433","alt_names":[],"object_type":"PAYLOAD","status":"ACTIVE","operator":null,"country":"US","launch_date":"2022-08-12","launch_site_code":"AFWTR","launch_vehicle":null,"mission":null,"orbit_class":"UNKNOWN","rcs_meters":null,"size_class":null,"mass_kg":null,"dimensions":null,"purposes":["comms"],"wikipedia_slug":null,"has_3d_model":false,"image_url":null,"decayed_at":null,"tle_current":{"epoch":"2026-09-20T22:00:03.000096Z","epoch_age_seconds":43077,"freshness":"FRESH","line1":"1 53478U 22099P   26263.91670139  .00737785  00000+0  31853-1 0  9991","line2":"2 53478  97.2852  17.7135 0001726  88.6210 220.2505 15.20008510  5730","mean_motion":15.2000851,"eccentricity":0.0001726,"inclination_deg":97.2852,"raan_deg":17.7135,"arg_perigee_deg":88.621,"mean_anomaly_deg":220.2505,"bstar":0.031853,"rev_number":573,"period_min":94.736311706571,"perigee_km":504.62674961603,"apogee_km":507.00308981871,"semimajor_km":6883.9519197174,"source":"CELESTRAK","updated_at":"2026-09-21T09:00:32.889442Z"}}}